TimeCST,TemperatureF,Dew PointF,Humidity,Sea Level PressureIn,VisibilityMPH,Wind Direction,Wind SpeedMPH,Gust SpeedMPH,PrecipitationIn,Events,Conditions,WindDirDegrees,DateUTC
12:21 AM,69.8,66.2,88,29.92,10.0,SE,10.4,19.6,N/A,,Overcast,140,2013-12-21 06:21:00
12:53 AM,70.0,66.0,87,29.90,10.0,SE,11.5,-,N/A,,Overcast,130,2013-12-21 06:53:00
1:53 AM,70.0,66.0,87,29.88,10.0,SE,9.2,-,N/A,,Overcast,130,2013-12-21 07:53:00
2:26 AM,69.8,66.2,88,29.88,10.0,SE,5.8,-,N/A,,Overcast,130,2013-12-21 08:26:00
2:53 AM,69.1,66.0,90,29.88,10.0,SE,6.9,-,N/A,,Overcast,130,2013-12-21 08:53:00
3:53 AM,69.1,66.0,90,29.85,10.0,ESE,6.9,-,N/A,,Overcast,120,2013-12-21 09:53:00
4:53 AM,71.1,66.9,87,29.82,10.0,SSE,12.7,-,N/A,,Mostly Cloudy,150,2013-12-21 10:53:00
5:07 AM,71.6,66.2,83,29.81,10.0,SE,15.0,24.2,N/A,,Mostly Cloudy,140,2013-12-21 11:07:00
5:53 AM,71.1,66.9,87,29.80,10.0,SSE,13.8,19.6,N/A,,Mostly Cloudy,150,2013-12-21 11:53:00
6:53 AM,72.0,66.9,84,29.80,10.0,SSE,17.3,26.5,N/A,,Overcast,160,2013-12-21 12:53:00
7:04 AM,71.6,66.2,83,29.80,10.0,SSE,16.1,27.6,N/A,,Overcast,160,2013-12-21 13:04:00
7:53 AM,73.0,66.9,81,29.80,10.0,SSE,13.8,25.3,N/A,,Overcast,150,2013-12-21 13:53:00
8:53 AM,73.9,66.9,79,29.81,10.0,SSE,19.6,28.8,N/A,,Mostly Cloudy,160,2013-12-21 14:53:00
9:53 AM,75.0,68.0,79,29.82,10.0,South,18.4,26.5,N/A,,Overcast,180,2013-12-21 15:53:00
10:53 AM,77.0,68.0,74,29.80,10.0,South,20.7,29.9,N/A,,Mostly Cloudy,180,2013-12-21 16:53:00
11:53 AM,79.0,68.0,69,29.76,10.0,South,26.5,34.5,N/A,,Mostly Cloudy,170,2013-12-21 17:53:00
12:53 PM,79.0,68.0,69,29.75,10.0,South,24.2,35.7,N/A,,Mostly Cloudy,170,2013-12-21 18:53:00
1:53 PM,79.0,66.9,66,29.72,10.0,South,17.3,25.3,N/A,,Overcast,170,2013-12-21 19:53:00
2:53 PM,79.0,66.0,64,29.71,10.0,South,15.0,32.2,N/A,,Overcast,170,2013-12-21 20:53:00
3:53 PM,78.1,66.9,68,29.71,10.0,South,15.0,26.5,N/A,,Overcast,170,2013-12-21 21:53:00
4:53 PM,77.0,66.9,71,29.72,10.0,South,17.3,25.3,N/A,,Overcast,170,2013-12-21 22:53:00
5:53 PM,75.9,66.9,74,29.73,10.0,South,17.3,23.0,N/A,,Overcast,170,2013-12-21 23:53:00
6:53 PM,75.0,68.0,79,29.75,10.0,South,23.0,31.1,0.00,Rain,Light Rain,190,2013-12-22 00:53:00
7:53 PM,75.9,69.1,79,29.75,10.0,South,20.7,32.2,0.00,,Overcast,180,2013-12-22 01:53:00
8:53 PM,73.9,70.0,87,29.76,10.0,South,16.1,24.2,0.02,,Overcast,180,2013-12-22 02:53:00
9:53 PM,73.9,70.0,87,29.78,10.0,South,15.0,25.3,N/A,,Overcast,190,2013-12-22 03:53:00
10:17 PM,66.2,62.6,88,29.80,10.0,WNW,17.3,25.3,N/A,,Overcast,300,2013-12-22 04:17:00
10:25 PM,64.4,60.8,88,29.80,10.0,WNW,11.5,-,N/A,,Overcast,300,2013-12-22 04:25:00
10:53 PM,62.1,59.0,90,29.82,5.0,NW,6.9,-,0.04,Rain,Rain,320,2013-12-22 04:53:00
11:33 PM,62.6,59.0,88,29.81,6.0,NNE,3.5,-,0.03,Rain-Thunderstorm,Thunderstorms and Rain,30,2013-12-22 05:33:00
11:46 PM,62.6,59.0,88,29.82,10.0,Calm,Calm,-,0.03,,Overcast,0,2013-12-22 05:46:00
11:53 PM,61.0,57.9,90,29.82,10.0,Calm,Calm,-,0.03,,Overcast,0,2013-12-22 05:53:00